Weather History for McConnell AFB, KS

Change the Weather History Date:

Sunday, January 13, 2013

  Actual Average Record
Temperature  
Mean Temperature 20 °F -  
Max Temperature 28 °F 41 °F 59 °F (2002)
Min Temperature 12 °F 23 °F 3 °F (2011)
Degree Days  
Heating Degree Days 45    
Moisture  
Dew Point 6 °F    
Average Humidity 57    
Maximum Humidity 74    
Minimum Humidity 34    
Precipitation  
Precipitation 0.00 in - - ()
Sea Level Pressure  
Sea Level Pressure 30.31 in    
Wind  
Wind Speed 14 mph (North)    
Max Wind Speed 20 mph    
Max Gust Speed 25 mph    
Visibility 10 miles    
Events      
Averages and records for this station are not official NWS values.
T = Trace of Precipitation, MM = Missing Value Source: NWS Daily Summary

Daily Weather History Graph

Daily Weather History Graph

Search for Another Location

Airport:

Trip Planner

Search our weather history database for the weather conditions in past years. The results will help you decide how hot, cold, wet, or windy it might be!

Date:

Astronomy

Jan. 13, 2013 Rise Set
Actual Time 7:43 AM CST 5:32 PM CST
Civil Twilight 7:14 AM CST 6:01 PM CST
Nautical Twilight 6:42 AM CST 6:33 PM CST
Astronomical Twilight 6:10 AM CST 7:05 PM CST
Moon 8:46 AM CST (1/13) 8:08 PM CST (1/13)
Length of Visible Light 10h 46m
Length of Day
9h 49m
Waxing Crescent, 5% of the Moon is Illuminated
Jan 13
Waxing Crescent
Jan 18
First Quarter
Jan 26
Full
Feb 3
Last Quarter
Feb 10
New

Hourly Weather History & Observations

Time (CST) Temp. Windchill Dew Point Humidity Pressure Visibility Wind Dir Wind Speed Gust Speed Precip Events Conditions
12:55 AM 19.6 °F 3.9 °F 8.2 °F 61% 30.15 in 10.0 mi North 19.6 mph 25.3 mph N/A   Clear
1:55 AM 18.9 °F 3.3 °F 8.8 °F 65% 30.17 in 10.0 mi North 18.4 mph - N/A   Clear
2:55 AM 18.3 °F 2.6 °F 9.5 °F 68% 30.20 in 10.0 mi North 18.4 mph 24.2 mph N/A   Clear
3:55 AM 17.2 °F 1.7 °F 8.1 °F 67% 30.21 in 10.0 mi North 17.3 mph - N/A   Clear
4:55 AM 16.2 °F -0.2 °F 6.1 °F 65% 30.22 in 10.0 mi North 18.4 mph - N/A   Mostly Cloudy
5:55 AM 14.9 °F -0.8 °F 5.9 °F 68% 30.24 in 10.0 mi North 16.1 mph - N/A   Clear
6:55 AM 13.6 °F -3.0 °F 5.5 °F 70% 30.27 in 10.0 mi North 17.3 mph - N/A   Clear
7:55 AM 12.7 °F -1.8 °F 5.7 °F 74% 30.31 in 10.0 mi North 12.7 mph - N/A   Clear
8:55 AM 14.2 °F 0.0 °F 5.9 °F 70% 30.34 in 10.0 mi North 12.7 mph - N/A   Clear
9:55 AM 16.7 °F 4.5 °F 6.3 °F 64% 30.37 in 10.0 mi North 10.4 mph - N/A   Clear
10:55 AM 19.0 °F 5.0 °F 5.4 °F 55% 30.38 in 10.0 mi North 15.0 mph - N/A   Clear
11:55 AM 21.9 °F 11.0 °F 4.3 °F 47% 30.34 in 10.0 mi NNW 10.4 mph - N/A   Clear
12:55 PM 24.3 °F 13.9 °F 2.5 °F 39% 30.32 in 10.0 mi North 10.4 mph - N/A   Clear
1:55 PM 26.1 °F 17.6 °F 2.5 °F 36% 30.30 in 10.0 mi North 8.1 mph - N/A   Clear
2:55 PM 27.0 °F 20.5 °F 2.1 °F 34% 30.31 in 10.0 mi North 5.8 mph - N/A   Clear
3:55 PM 28.0 °F 17.5 °F 2.8 °F 34% 30.31 in 10.0 mi North 12.7 mph - N/A   Clear
4:55 PM 27.1 °F 18.2 °F 3.7 °F 37% 30.33 in 10.0 mi North 9.2 mph - N/A   Clear
5:55 PM 24.8 °F 16.1 °F 5.9 °F 45% 30.35 in 10.0 mi North 8.1 mph - N/A   Clear
6:55 PM 23.4 °F 15.2 °F 7.3 °F 50% 30.35 in 10.0 mi North 6.9 mph - N/A   Clear
7:55 PM 22.1 °F 17.4 °F 7.3 °F 53% 30.37 in 10.0 mi NNE 3.5 mph - N/A   Clear
8:55 PM 20.5 °F 15.6 °F 7.7 °F 58% 30.39 in 10.0 mi NNE 3.5 mph - N/A   Clear
9:55 PM 17.4 °F 7.1 °F 8.1 °F 67% 30.37 in 10.0 mi North 8.1 mph - N/A   Clear
10:55 PM 18.0 °F 7.7 °F 8.1 °F 65% 30.39 in 10.0 mi North 8.1 mph - N/A   Clear
11:55 PM 17.2 °F 7.8 °F 8.1 °F 67% 30.41 in 10.0 mi NNE 6.9 mph - N/A   Clear